Location: Berkeley
(37.8716°N, 122.2727°W)
Time: 18:14:41
(UTC-07:00)

Hubble Space Telescope - Visible Passes

Search period start: 20 October 2017 00:00
Search period end: 30 October 2017 00:00
Orbit: 537 x 541 km, 28.5° (Epoch: 20 October)

Date Brightness Start Highest point End Pass type
(mag) Time Alt. Az. Time Alt. Az. Time Alt. Az.
20 Oct 3.4 20:39:25 10° SSW 20:39:57 12° SSW 20:39:57 12° SSW visible
21 Oct 3.1 20:28:57 10° SW 20:30:24 16° SSW 20:30:24 16° SSW visible
22 Oct 2.7 20:18:33 10° SW 20:20:49 19° S 20:20:49 19° S visible
23 Oct 2.5 20:08:12 10° SW 20:11:13 21° S 20:11:13 21° S visible
24 Oct 2.4 19:57:53 10° SW 20:01:06 22° S 20:01:36 21° SSE visible
25 Oct 2.5 19:47:36 10° SW 19:50:50 22° S 19:52:00 19° SSE visible
26 Oct 2.6 19:37:22 10° SW 19:40:33 21° S 19:42:24 16° SSE visible
27 Oct 2.8 19:27:10 10° SW 19:30:16 20° S 19:32:51 12° SE visible
28 Oct 2.9 19:17:01 10° SW 19:19:59 19° S 19:22:56 10° SE visible
29 Oct 3.1 19:06:54 10° SW 19:09:42 17° SSW 19:12:28 10° SSE visible
